Location: Deep River
(46.0977°N, 77.4933°W)
Time: 21:25:34
(UTC-04:00)

Tiangong 2 - Visible Passes

Search period start: 18 March 2019 00:00
Search period end: 28 March 2019 00:00
Orbit: 379 x 390 km, 42.8° (Epoch: 18 March)

Date Brightness Start Highest point End Pass type
(mag) Time Alt. Az. Time Alt. Az. Time Alt. Az.
18 Mar 1.7 06:01:41 28° WSW 06:02:51 41° S 06:05:54 10° ESE visible
19 Mar 3.0 05:04:57 25° ESE 05:04:57 25° ESE 05:06:33 10° ESE visible
19 Mar 2.4 06:37:11 10° WSW 06:39:54 26° SSW 06:42:37 10° SE visible
20 Mar 1.9 05:40:31 34° SSW 05:40:34 34° SSW 05:43:30 10° SE visible
21 Mar 4.1 04:43:55 12° ESE 04:43:55 12° ESE 04:44:13 10° ESE visible
21 Mar 2.8 06:16:09 15° WSW 06:17:31 18° SSW 06:19:49 10° SSE visible
22 Mar 3.1 05:19:39 18° SSE 05:19:39 18° SSE 05:20:55 10° SE visible
23 Mar 3.4 05:55:31 12° SSW 05:55:31 12° SSW 05:56:25 10° S visible
